Regional Weather Roundup
Issued by NWS State College, PA

Home | Current Version | Previous Version | Graphics & Text | Print | Product List | Glossary On
Versions: 1 2 3 4 5 6 7 8 9 10 11 12 13 14 15 16 17 18 19 20 21 22 23 24 25 26 27 28 29 30 31 32 33 34 35 36 37 38 39 40 41 42 43 44 45 46 47 48 49 50
000
ASUS41 KCTP 230910
RWRCTP

REGIONAL WEATHER ROUNDUP
NATIONAL WEATHER SERVICE STATE COLLEGE PA
400 AM EST SUN NOV 23 2014

Note: "fair" indicates few or no clouds below 12,000 feet with no
significant weather and/or obstructions to visibility.

* = STATION THAT DOES NOT REPORT PRECIPITATION /E.G. RAIN...SNOW...ETC/
    THUNDER OR FOG.

PAZ002>004-007>009-013>016-020>023-029>032-231000-
WESTERN PENNSYLVANIA

CITY           SKY/WX    TMP DP  RH WIND       PRES   REMARKS
ERIE           CLOUDY    50  33  52 SW12      30.02R
MEADVILLE      CLOUDY    45  30  55 S10       30.04S
FRANKLIN*      CLOUDY    41  30  65 S9        30.07F
NEW CASTLE       N/A     46  32  58 CALM      30.08F
BEAVER COUNTY  NOT AVBL
BUTLER*        CLOUDY    46  30  53 SW3       30.11S
PITTSBURGH INT LGT RAIN  50  29  44 SW5       30.09F
PITTSBURGH     CLOUDY    47  24  40 S6        30.09F
INDIANA*       CLOUDY    46  28  49 CALM      30.14S
LATROBE        CLOUDY    48  25  40 SW7       30.13R
WASHINGTON CO* CLOUDY    50  27  40 SW3       30.10F
$$

PAZ004>006-010>012-017>019-024>028-033>037-041-042-045-046-049>053-231000-
CENTRAL PENNSYLVANIA

CITY           SKY/WX    TMP DP  RH WIND       PRES   REMARKS
BRADFORD       CLOUDY    43  30  60 SW7       30.05S
DUBOIS         CLOUDY    45  32  60 SW9       30.07S
CLEARFIELD     LGT RAIN  35  33  92 VRB3      30.10S
JOHNSTOWN      CLOUDY    46  25  43 SW7       30.10S
ALTOONA        CLOUDY    44  26  49 W5        30.11S
STATE COLLEGE  LGT RAIN  32  29  88 CALM      30.11F
WILLIAMSPORT   CLOUDY    32  29  88 CALM      30.15F
SELINSGROVE    CLOUDY    34  22  61 CALM      30.16S
FT INDIANTOWN  MOCLDY    31  24  74 CALM      30.18F
CAPITAL CITY   CLOUDY    37  22  54 CALM      30.17F
HARRISBURG     CLOUDY    36  23  59 NE3       30.17S
YORK           CLOUDY    43  19  38 CALM      30.16F
$$

PAZ038>040-043-044-047-048-054-055-060>062-067>071-231000-
EASTERN PENNSYLVANIA

CITY           SKY/WX    TMP DP  RH WIND       PRES   REMARKS
SCRANTON       CLOUDY    39  20  46 MISG      30.13F
MOUNT POCONO   CLOUDY    41  18  39 W8        30.10S
ALLENTOWN      CLOUDY    36  23  59 CALM      30.17F
QUAKERTOWN*    CLOUDY    37  23  56 CALM      30.19S
READING        CLOUDY    38  24  57 SW5       30.18R
LANCASTER      CLOUDY    35  24  64 NE5       30.19R
COATESVILLE    CLOUDY    36  23  60 CALM      30.18S
POTTSTOWN      CLOUDY    37  22  54 CALM      30.21S
BLUE BELL      MOCLDY    39  27  60 CALM      30.19S
DOYLESTOWN     MOCLDY    37  23  56 S6        30.17F
WILLOW GROVE   NOT AVBL
NORTH PHILA    PTCLDY    41  22  46 SW6       30.22S
PHILADELPHIA   MOCLDY    40  24  53 S7        30.21F
$$



USA.gov is the U.S. government's official web portal to all federal, state and local government web resources and services.